Zurück zum Katalog

STARLINK-35437

AktivKommunikationVLEO
NORAD 66563·PAYLOAD·🇺🇸 United States

Gestartet Nov 21, 2025 von Cape Canaveral Space Force Station

Loading…

Nächste Überflüge (nächste 24 Stunden)

TLE

AktuellSource: CelesTrak SupGP

Epoche: Sep 14, 2026, 21:22 UTC

1 66563C 25268G   26257.89076389  .00007554  00000+0  27361-3 0  2570
2 66563  43.0037 358.4560 0001780 275.4386 197.2393 15.27570999    16

Verfolge STARLINK-35437 in Echtzeit mit AllMySat

Download on the App Store